Location: Newark
(57.7279°N, 5.6916°W)
Time: 19:36:15
(UTC+00:00)

N. Korean satellite - Pass Details

Date: 16 December 2019
Orbit: 454 x 507 km, 97.2° (Epoch: 22 January)

Event Time Altitude Azimuth Distance (km) Brightness Sun altitude
Rises 07:05:06 0° 11° (N) 2,550 10.1 -13.6°
Reaches altitude 10° 07:07:14 10° 5° (N) 1,657 9.1 -13.3°
Maximum altitude 07:10:38 45° 292° (WNW) 649 6.7 -12.9°
Drops below altitude 10° 07:13:58 10° 219° (SW) 1,618 9.1 -12.5°
Sets 07:16:02 0° 213° (SSW) 2,482 10.1 -12.2°
